Location: Wangen+im+Allg�u
(47.7098°N, 9.8383°E)
Time: 01:59:30
(UTC+01:00)

ISS - Pass Details

Date: 07 January 2018
Orbit: 401 x 406 km, 51.6° (Epoch: 17 January)

Event Time Altitude Azimuth Distance (km) Brightness Sun altitude
Exits shadow 05:58:09 36° 26° (NNE) 665 -2.7 -21.1°
Drops below altitude 10° 06:00:44 10° 71° (ENE) 1,468 -0.1 -20.6°
Sets 06:02:54 0° 80° (E) 2,329 1.2 -20.3°
